| time (UTC) | temp C | wind direction | speed KPH | gust KPH | rain 1hr cm | rain 24hr cm | rain mn cm | humidity % | barometer mb |
| 20260504081702 | 17 | 220 | 8.0 | 19.3 | 0.00 | 0.00 | 0.00 | 58 | 1021.8 |
| 20260504081159 | 17 | 219 | 8.0 | 17.7 | 0.00 | 0.00 | 0.00 | 57 | 1021.7 |
| 20260504080655 | 18 | 244 | 11.3 | 16.1 | 0.00 | 0.00 | 0.00 | 57 | 1022.0 |
| 20260504080152 | 18 | 237 | 9.7 | 11.3 | 0.00 | 0.00 | 0.00 | 51 | 1021.9 |
| 20260504070120 | 17 | 259 | 6.4 | 11.3 | 0.00 | 0.00 | 0.00 | 49 | 1021.7 |
| 20260504050508 | 11 | 202 | 1.6 | 6.4 | 0.00 | 0.00 | 0.00 | 62 | 1022.1 |
| 20260504050004 | 11 | 194 | 3.2 | 4.8 | 0.00 | 0.00 | 0.00 | 63 | 1022.1 |
| 20260504045500 | 11 | 162 | 3.2 | 6.4 | 0.00 | 0.00 | 0.00 | 63 | 1022.1 |
| 20260504044957 | 11 | 170 | 3.2 | 6.4 | 0.00 | 0.00 | 0.00 | 64 | 1021.8 |
| 20260504044454 | 11 | 51 | 4.8 | 4.8 | 0.00 | 0.00 | 0.00 | 65 | 1021.7 |
| 20260504043952 | 11 | 180 | 0.0 | 4.8 | 0.00 | 0.00 | 0.00 | 66 | 1021.7 |
| 20260504043449 | 11 | 153 | 4.8 | 6.4 | 0.00 | 0.00 | 0.00 | 66 | 1021.7 |
| 20260504042946 | 11 | 186 | 4.8 | 6.4 | 0.00 | 0.00 | 0.00 | 67 | 1021.7 |
| 20260504042443 | 10 | 187 | 3.2 | 4.8 | 0.00 | 0.00 | 0.00 | 68 | 1021.8 |
| 20260504041940 | 10 | 116 | 1.6 | 4.8 | 0.00 | 0.00 | 0.00 | 68 | 1021.6 |
| 20260504041436 | 10 | 152 | 4.8 | 6.4 | 0.00 | 0.00 | 0.00 | 69 | 1021.7 |
| 20260504040931 | 10 | 186 | 3.2 | 6.4 | 0.00 | 0.00 | 0.00 | 70 | 1021.8 |
| 20260504040430 | 10 | 95 | 3.2 | 4.8 | 0.00 | 0.00 | 0.00 | 71 | 1021.7 |
| 20260504035925 | 10 | 171 | 0.0 | 3.2 | 0.00 | 0.00 | 0.00 | 71 | 1021.7 |
| 20260504035423 | 10 | 185 | 3.2 | 3.2 | 0.00 | 0.00 | 0.00 | 71 | 1021.6 |
| 20260504034919 | 10 | 142 | 1.6 | 6.4 | 0.00 | 0.00 | 0.00 | 72 | 1021.7 |
| 20260504034417 | 10 | 4 | 3.2 | 4.8 | 0.00 | 0.00 | 0.00 | 72 | 1021.6 |
| 20260504033914 | 10 | 25 | 1.6 | 4.8 | 0.00 | 0.00 | 0.00 | 72 | 1021.6 |
| 20260504033412 | 10 | 59 | 1.6 | 3.2 | 0.00 | 0.00 | 0.00 | 72 | 1021.6 |
| 20260504032908 | 10 | 104 | 1.6 | 4.8 | 0.00 | 0.00 | 0.00 | 72 | 1021.7 |
| 20260504032405 | 10 | 229 | 3.2 | 4.8 | 0.00 | 0.00 | 0.00 | 71 | 1021.6 |
| 20260504031902 | 10 | 37 | 3.2 | 4.8 | 0.00 | 0.00 | 0.00 | 71 | 1021.5 |
| 20260504031359 | 10 | 149 | 0.0 | 3.2 | 0.00 | 0.00 | 0.00 | 70 | 1021.7 |
| 20260504030855 | 10 | 38 | 0.0 | 3.2 | 0.00 | 0.00 | 0.00 | 70 | 1021.5 |
| 20260504030353 | 10 | 199 | 3.2 | 3.2 | 0.00 | 0.00 | 0.00 | 70 | 1021.5 |
| 20260504025849 | 10 | 323 | 0.0 | 3.2 | 0.00 | 0.00 | 0.00 | 70 | 1021.6 |
| 20260504025346 | 10 | 197 | 0.0 | 3.2 | 0.00 | 0.00 | 0.00 | 70 | 1021.5 |
| 20260504024842 | 10 | 135 | 3.2 | 4.8 | 0.00 | 0.00 | 0.00 | 70 | 1021.4 |
| 20260504024338 | 10 | 264 | 3.2 | 4.8 | 0.00 | 0.00 | 0.00 | 70 | 1021.5 |
| 20260504023836 | 10 | 179 | 3.2 | 3.2 | 0.00 | 0.00 | 0.00 | 70 | 1021.4 |
| 20260504023333 | 10 | 209 | 1.6 | 3.2 | 0.00 | 0.00 | 0.00 | 69 | 1021.3 |
| 20260504022828 | 10 | 268 | 0.0 | 4.8 | 0.00 | 0.00 | 0.00 | 69 | 1021.3 |
| 20260504022326 | 10 | 250 | 3.2 | 6.4 | 0.00 | 0.00 | 0.00 | 69 | 1021.3 |
| 20260504021822 | 10 | 182 | 4.8 | 4.8 | 0.00 | 0.00 | 0.00 | 69 | 1021.4 |
| 20260504021320 | 10 | 79 | 3.2 | 4.8 | 0.00 | 0.00 | 0.00 | 69 | 1021.2 |
| 20260504020816 | 10 | 199 | 3.2 | 6.4 | 0.00 | 0.00 | 0.00 | 68 | 1021.1 |
| 20260504020313 | 10 | 125 | 4.8 | 4.8 | 0.00 | 0.00 | 0.00 | 68 | 1021.3 |
| 20260504015809 | 10 | 6 | 3.2 | 3.2 | 0.00 | 0.00 | 0.00 | 68 | 1021.3 |
| 20260504015305 | 10 | 78 | 3.2 | 4.8 | 0.00 | 0.00 | 0.00 | 67 | 1021.1 |
| 20260504014801 | 10 | 145 | 3.2 | 4.8 | 0.00 | 0.00 | 0.00 | 67 | 1021.2 |
| 20260504014257 | 10 | 109 | 1.6 | 4.8 | 0.00 | 0.00 | 0.00 | 66 | 1021.2 |
| 20260504013755 | 10 | 127 | 3.2 | 4.8 | 0.00 | 0.00 | 0.00 | 65 | 1021.1 |
| 20260504013253 | 10 | 49 | 3.2 | 4.8 | 0.00 | 0.00 | 0.00 | 65 | 1021.1 |
| 20260504012749 | 10 | 108 | 3.2 | 4.8 | 0.00 | 0.00 | 0.00 | 65 | 1021.0 |
| 20260504012247 | 10 | 219 | 0.0 | 4.8 | 0.00 | 0.00 | 0.00 | 65 | 1021.0 |
| 20260504011744 | 10 | 105 | 1.6 | 4.8 | 0.00 | 0.00 | 0.00 | 65 | 1021.1 |
| 20260504011241 | 10 | 177 | 3.2 | 4.8 | 0.00 | 0.00 | 0.00 | 64 | 1021.1 |
| 20260504010737 | 10 | 208 | 0.0 | 3.2 | 0.00 | 0.00 | 0.00 | 64 | 1021.0 |
| 20260504010232 | 10 | 174 | 3.2 | 4.8 | 0.00 | 0.00 | 0.00 | 63 | 1020.9 |
| 20260504005729 | 10 | 240 | 3.2 | 4.8 | 0.00 | 0.00 | 0.00 | 63 | 1020.8 |
| 20260504005227 | 10 | 13 | 1.6 | 4.8 | 0.00 | 0.00 | 0.00 | 63 | 1020.9 |
| 20260504004724 | 10 | 188 | 1.6 | 3.2 | 0.00 | 0.00 | 0.00 | 62 | 1020.7 |
| 20260504004221 | 10 | 168 | 0.0 | 6.4 | 0.00 | 0.00 | 0.00 | 63 | 1020.8 |
| 20260504003718 | 10 | 30 | 3.2 | 4.8 | 0.00 | 0.00 | 0.00 | 63 | 1020.8 |
| 20260504003215 | 10 | 189 | 1.6 | 4.8 | 0.00 | 0.00 | 0.00 | 62 | 1020.8 |
| 20260504002711 | 10 | 156 | 3.2 | 3.2 | 0.00 | 0.00 | 0.00 | 63 | 1020.8 |
| 20260504002208 | 10 | 121 | 3.2 | 4.8 | 0.00 | 0.00 | 0.00 | 63 | 1021.0 |
| 20260504001706 | 10 | 127 | 0.0 | 4.8 | 0.00 | 0.00 | 0.00 | 63 | 1020.7 |
| 20260504001202 | 10 | 160 | 0.0 | 6.4 | 0.00 | 0.00 | 0.00 | 63 | 1020.9 |
| 20260504000659 | 10 | 233 | 3.2 | 6.4 | 0.00 | 0.00 | 0.00 | 62 | 1021.0 |
| 20260504000156 | 10 | 91 | 3.2 | 4.8 | 0.00 | 0.00 | 0.00 | 61 | 1021.0 |
| 20260503235655 | 10 | 180 | 1.6 | 4.8 | 0.00 | 0.00 | 0.00 | 60 | 1021.0 |
| 20260503235151 | 10 | 168 | 0.0 | 4.8 | 0.00 | 0.00 | 0.00 | 59 | 1021.1 |
| 20260503234649 | 10 | 160 | 3.2 | 4.8 | 0.00 | 0.00 | 0.00 | 59 | 1021.0 |
| 20260503234147 | 10 | 64 | 1.6 | 4.8 | 0.00 | 0.00 | 0.00 | 58 | 1021.1 |
| 20260503233644 | 10 | 178 | 3.2 | 4.8 | 0.00 | 0.00 | 0.00 | 57 | 1021.0 |
| 20260503233139 | 10 | 175 | 1.6 | 4.8 | 0.00 | 0.00 | 0.00 | 56 | 1021.3 |
| 20260503232636 | 11 | 64 | 3.2 | 4.8 | 0.00 | 0.00 | 0.00 | 57 | 1021.3 |
| 20260503232134 | 11 | 195 | 3.2 | 4.8 | 0.00 | 0.00 | 0.00 | 55 | 1021.2 |
| 20260503231632 | 10 | 43 | 1.6 | 6.4 | 0.00 | 0.00 | 0.00 | 56 | 1021.3 |
| 20260503231128 | 10 | 194 | 3.2 | 4.8 | 0.00 | 0.00 | 0.00 | 56 | 1021.3 |
| 20260503230625 | 10 | 173 | 1.6 | 4.8 | 0.00 | 0.00 | 0.00 | 56 | 1021.2 |
| 20260503230122 | 10 | 93 | 1.6 | 3.2 | 0.00 | 0.00 | 0.00 | 56 | 1021.4 |
| 20260503225620 | 11 | 210 | 1.6 | 4.8 | 0.00 | 0.00 | 0.00 | 56 | 1021.4 |
| 20260503225119 | 11 | 61 | 1.6 | 4.8 | 0.00 | 0.00 | 0.00 | 57 | 1021.3 |
| 20260503224617 | 11 | 9 | 0.0 | 4.8 | 0.00 | 0.00 | 0.00 | 57 | 1021.3 |
| 20260503224115 | 11 | 147 | 3.2 | 4.8 | 0.00 | 0.00 | 0.00 | 57 | 1021.3 |
| 20260503223612 | 11 | 21 | 0.0 | 4.8 | 0.00 | 0.00 | 0.00 | 56 | 1021.3 |
| 20260503223108 | 11 | 174 | 3.2 | 6.4 | 0.00 | 0.00 | 0.00 | 57 | 1021.3 |
| 20260503222606 | 11 | 193 | 3.2 | 4.8 | 0.00 | 0.00 | 0.00 | 57 | 1021.4 |
| 20260503222103 | 11 | 176 | 3.2 | 6.4 | 0.00 | 0.00 | 0.00 | 58 | 1021.3 |
| 20260503221601 | 11 | 167 | 3.2 | 6.4 | 0.00 | 0.00 | 0.00 | 58 | 1021.4 |
| 20260503221059 | 11 | 124 | 3.2 | 3.2 | 0.00 | 0.00 | 0.00 | 60 | 1021.3 |
| 20260503220555 | 11 | 176 | 3.2 | 6.4 | 0.00 | 0.00 | 0.00 | 60 | 1021.2 |
| 20260503220052 | 11 | 167 | 4.8 | 6.4 | 0.00 | 0.00 | 0.00 | 58 | 1021.3 |
| 20260503215549 | 11 | 172 | 0.0 | 4.8 | 0.00 | 0.00 | 0.00 | 56 | 1021.4 |
| 20260503215046 | 11 | 139 | 3.2 | 4.8 | 0.00 | 0.00 | 0.00 | 55 | 1021.4 |
| 20260503214544 | 11 | 194 | 4.8 | 4.8 | 0.00 | 0.00 | 0.00 | 56 | 1021.4 |
| 20260503214040 | 11 | 133 | 1.6 | 4.8 | 0.00 | 0.00 | 0.00 | 56 | 1021.3 |
| 20260503213538 | 11 | 163 | 3.2 | 4.8 | 0.00 | 0.00 | 0.00 | 56 | 1021.3 |
| 20260503213035 | 11 | 171 | 3.2 | 6.4 | 0.00 | 0.00 | 0.00 | 55 | 1021.4 |
| 20260503212533 | 11 | 104 | 4.8 | 4.8 | 0.00 | 0.00 | 0.00 | 55 | 1021.5 |
| 20260503212030 | 11 | 228 | 4.8 | 4.8 | 0.00 | 0.00 | 0.00 | 56 | 1021.5 |
| 20260503211527 | 11 | 151 | 3.2 | 6.4 | 0.00 | 0.00 | 0.00 | 56 | 1021.4 |
| 20260503211022 | 11 | 141 | 1.6 | 4.8 | 0.00 | 0.00 | 0.00 | 57 | 1021.3 |
| 20260503210519 | 11 | 164 | 1.6 | 4.8 | 0.00 | 0.00 | 0.00 | 58 | 1021.4 |
| 20260503210015 | 11 | 161 | 3.2 | 3.2 | 0.00 | 0.00 | 0.00 | 58 | 1021.4 |
| 20260503205512 | 11 | 175 | 3.2 | 4.8 | 0.00 | 0.00 | 0.00 | 59 | 1021.4 |
| 20260503205008 | 11 | 176 | 1.6 | 4.8 | 0.00 | 0.00 | 0.00 | 60 | 1021.2 |
| 20260503204506 | 11 | 190 | 1.6 | 4.8 | 0.00 | 0.00 | 0.00 | 61 | 1021.3 |
| 20260503204002 | 11 | 182 | 3.2 | 3.2 | 0.00 | 0.00 | 0.00 | 61 | 1021.3 |
| 20260503203459 | 11 | 136 | 3.2 | 4.8 | 0.00 | 0.00 | 0.00 | 61 | 1021.3 |
| 20260503202956 | 11 | 186 | 3.2 | 6.4 | 0.00 | 0.00 | 0.00 | 62 | 1021.5 |
| 20260503202454 | 11 | 91 | 3.2 | 6.4 | 0.00 | 0.00 | 0.00 | 62 | 1021.3 |
| 20260503201952 | 11 | 169 | 3.2 | 6.4 | 0.00 | 0.00 | 0.00 | 63 | 1021.4 |
| 20260503201450 | 11 | 162 | 3.2 | 4.8 | 0.00 | 0.00 | 0.00 | 64 | 1021.2 |
| 20260503200947 | 11 | 86 | 3.2 | 4.8 | 0.00 | 0.00 | 0.00 | 63 | 1021.3 |
| 20260503200443 | 11 | 93 | 3.2 | 4.8 | 0.00 | 0.00 | 0.00 | 63 | 1021.2 |
| 20260503195940 | 11 | 78 | 0.0 | 4.8 | 0.00 | 0.00 | 0.00 | 66 | 1021.1 |
| 20260503195437 | 11 | 165 | 3.2 | 6.4 | 0.00 | 0.00 | 0.00 | 64 | 1021.1 |
| 20260503194933 | 11 | 220 | 0.0 | 4.8 | 0.00 | 0.00 | 0.00 | 62 | 1021.0 |
| 20260503194431 | 11 | 55 | 4.8 | 4.8 | 0.00 | 0.00 | 0.00 | 62 | 1020.9 |
| 20260503193926 | 11 | 87 | 3.2 | 4.8 | 0.00 | 0.00 | 0.00 | 62 | 1020.6 |
| 20260503193422 | 11 | 197 | 3.2 | 3.2 | 0.00 | 0.00 | 0.00 | 62 | 1020.7 |
| 20260503192917 | 11 | 184 | 1.6 | 4.8 | 0.00 | 0.00 | 0.00 | 62 | 1020.6 |
| 20260503192414 | 11 | 171 | 3.2 | 4.8 | 0.00 | 0.00 | 0.00 | 61 | 1020.9 |
| 20260503191910 | 11 | 24 | 3.2 | 3.2 | 0.00 | 0.00 | 0.00 | 61 | 1020.9 |
| 20260503191408 | 11 | 186 | 3.2 | 6.4 | 0.00 | 0.00 | 0.00 | 61 | 1020.9 |
| 20260503190903 | 11 | 178 | 3.2 | 3.2 | 0.00 | 0.00 | 0.00 | 61 | 1020.8 |
| 20260503190401 | 12 | 43 | 3.2 | 4.8 | 0.00 | 0.00 | 0.00 | 62 | 1020.7 |
| 20260503185858 | 12 | 193 | 3.2 | 3.2 | 0.00 | 0.00 | 0.00 | 64 | 1020.6 |
| 20260503185354 | 12 | 161 | 0.0 | 4.8 | 0.00 | 0.00 | 0.00 | 65 | 1020.7 |
| 20260503184854 | 12 | 192 | 3.2 | 4.8 | 0.00 | 0.00 | 0.00 | 65 | 1020.8 |
| 20260503184350 | 12 | 189 | 4.8 | 4.8 | 0.00 | 0.00 | 0.00 | 64 | 1020.8 |
| 20260503183846 | 12 | 35 | 3.2 | 4.8 | 0.00 | 0.00 | 0.00 | 66 | 1020.7 |
| 20260503183343 | 12 | 164 | 4.8 | 4.8 | 0.00 | 0.00 | 0.00 | 66 | 1020.5 |
| 20260503182841 | 12 | 146 | 3.2 | 4.8 | 0.00 | 0.00 | 0.00 | 66 | 1020.5 |
| 20260503182340 | 12 | 162 | 3.2 | 6.4 | 0.00 | 0.00 | 0.00 | 67 | 1020.3 |
| 20260503181837 | 12 | 183 | 3.2 | 6.4 | 0.00 | 0.00 | 0.00 | 68 | 1020.4 |
| 20260503181333 | 12 | 133 | 1.6 | 6.4 | 0.00 | 0.00 | 0.00 | 69 | 1020.4 |
| 20260503180830 | 12 | 178 | 4.8 | 4.8 | 0.00 | 0.00 | 0.00 | 70 | 1020.1 |
| 20260503180328 | 12 | 147 | 1.6 | 6.4 | 0.00 | 0.00 | 0.00 | 72 | 1020.3 |
| 20260503175824 | 12 | 143 | 3.2 | 6.4 | 0.00 | 0.00 | 0.00 | 73 | 1019.9 |
| 20260503175322 | 12 | 183 | 4.8 | 4.8 | 0.00 | 0.00 | 0.00 | 74 | 1019.9 |
| 20260503174817 | 12 | 176 | 3.2 | 4.8 | 0.00 | 0.00 | 0.00 | 74 | 1019.7 |
| 20260503174316 | 12 | 198 | 3.2 | 4.8 | 0.00 | 0.00 | 0.00 | 74 | 1019.7 |
| 20260503173811 | 12 | 152 | 0.0 | 3.2 | 0.00 | 0.00 | 0.00 | 75 | 1019.6 |
| 20260503173307 | 12 | 181 | 3.2 | 4.8 | 0.00 | 0.00 | 0.00 | 74 | 1019.5 |
| 20260503172804 | 13 | 189 | 3.2 | 3.2 | 0.00 | 0.00 | 0.00 | 75 | 1019.3 |
| 20260503172304 | 13 | 163 | 0.0 | 3.2 | 0.00 | 0.00 | 0.00 | 73 | 1019.2 |
| 20260503171758 | 14 | 193 | 1.6 | 3.2 | 0.00 | 0.00 | 0.00 | 71 | 1019.0 |
| 20260503171255 | 15 | 224 | 0.0 | 3.2 | 0.00 | 0.00 | 0.00 | 68 | 1018.8 |
| 20260503170752 | 15 | 200 | 0.0 | 6.4 | 0.00 | 0.00 | 0.00 | 66 | 1018.9 |
| 20260503170249 | 16 | 220 | 0.0 | 3.2 | 0.00 | 0.00 | 0.00 | 64 | 1018.7 |
| 20260503160210 | 17 | 212 | 0.0 | 3.2 | 0.00 | 0.00 | 0.00 | 54 | 1017.8 |
| 20260503150641 | 15 | 8 | 6.4 | 11.3 | 0.00 | 0.00 | 0.00 | 54 | 1017.4 |
| 20260503150136 | 15 | 341 | 1.6 | 8.0 | 0.00 | 0.00 | 0.00 | 60 | 1017.4 |
| 20260503131030 | 11 | 159 | 3.2 | 3.2 | 0.00 | 0.00 | 0.00 | 87 | 1017.3 |
| 20260503130528 | 11 | 145 | 3.2 | 6.4 | 0.00 | 0.00 | 0.00 | 84 | 1017.3 |
| 20260503110418 | 18 | 195 | 12.9 | 14.5 | 0.00 | 0.00 | 0.00 | 49 | 1016.4 |
| 20260503090309 | 16 | 204 | 8.0 | 14.5 | 0.00 | 0.00 | 0.00 | 54 | 1017.2 |